Dewpoint
75 75 69 68 68 68 65 61 35 38 39 30 32 34 37 43 43 42 45 47 46 49 50 51 54 55 52 52 54 57 59 55 56 46 53 67 68 69 71 70 71 71 71 72 73 74 75 75 75 76 76 76 76 76 76 76 76 76 76 76 76 75 76 75 76 76 76 76 75 75 75 75 76 75 75 75 75 75 75 75 75 75 74 74 75 75 75 75 76 76 76 76 76 76 76 76 76
70 69 67 66 67 64 56 56 37 33 36 32 36 38 40 38 41 43 40 44 47 49 51 54 54 53 53 52 51 51 57 60 60 62 64 66 68 70 71 70 70 71 71 72 72 71 74 76 75 76 76 77 76 76 76 76 76 76 76 76 76 76 76 76 75 75 75 75 75 75 75 75 75 75 75 75 75 75 75 75 75 75 75 74 75 75 75 75 76 76 76 76 76 76 76 76 76
66 67 65 66 64 64 59 61 34 30 31 33 39 41 39 38 41 42 44 48 51 52 54 55 55 53 54 54 54 52 56 61 61 62 64 66 68 69 71 71 71 71 71 72 71 72 74 75 75 76 76 77 76 76 76 77 76 76 76 76 75 75 76 76 75 75 75 76 75 75 75 75 75 75 75 75 75 75 75 75 75 75 75 75 75 75 75 75 75 75 76 76 76 76 76 76 75
67 68 66 66 63 61 41 31 37 30 30 36 39 37 40 43 45 46 48 49 52 53 53 52 53 57 49 52 56 58 58 59 60 62 62 63 68 70 71 71 72 70 70 71 71 72 75 75 75 76 76 77 76 76 76 76 76 76 76 76 76 76 75 75 75 75 76 76 75 75 75 76 75 75 75 75 76 75 75 75 75 75 75 75 74 74 75 75 75 75 75 75 75 76 76 76 76
66 68 66 64 64 44 42 36 33 30 28 32 36 40 43 47 50 51 52 52 52 52 51 54 54 58 59 59 57 53 57 61 60 61 63 67 68 70 71 72 71 70 70 71 71 71 74 75 75 76 76 77 77 76 76 76 76 76 76 76 76 76 75 75 75 75 75 75 75 75 75 75 75 75 75 76 76 76 75 75 75 75 75 75 74 74 74 74 74 74 74 75 75 75 75 75 76
65 66 66 65 59 56 51 34 33 36 34 31 38 42 45 49 51 52 53 53 53 52 52 50 50 52 56 59 58 57 59 55 61 62 64 65 68 70 71 72 70 70 70 72 72 72 74 76 76 76 76 76 76 76 76 76 76 76 76 76 76 75 75 75 75 74 74 75 75 75 75 75 75 75 75 75 75 75 75 75 75 75 75 74 74 74 73 74 74 74 73 74 74 75 75 75 75
62 63 64 64 62 55 35 32 30 34 36 36 39 44 47 49 50 51 52 52 53 52 52 50 52 53 53 58 60 62 63 61 61 62 65 66 68 70 71 70 71 71 71 72 72 73 74 76 76 76 76 76 76 76 76 76 76 76 76 76 75 75 75 75 74 75 75 75 75 75 75 75 75 75 75 74 74 75 75 75 75 74 74 74 74 73 74 73 73 74 73 73 74 73 74 74 75
65 63 53 49 37 33 31 32 32 36 39 39 42 45 48 50 50 50 50 48 48 48 52 54 54 51 54 57 56 62 62 63 62 65 67 67 68 69 69 69 69 70 70 72 73 74 76 75 76 76 76 76 76 76 76 76 76 76 76 75 75 75 75 75 75 75 75 75 75 75 75 75 75 75 74 74 74 74 74 74 74 74 74 73 74 73 73 73 73 73 73 73 72 73 74 74 75
63 61 55 55 34 30 30 31 35 39 40 41 43 48 54 49 49 49 47 48 48 48 50 50 49 50 55 57 58 62 63 63 64 67 68 67 67 68 68 67 68 69 70 71 72 73 74 76 76 76 76 76 75 76 76 76 76 76 76 76 75 75 75 75 75 75 75 75 75 75 75 75 75 75 75 75 74 74 74 74 74 74 74 74 74 74 74 74 74 73 73 73 73 72 72 73 73
61 56 35 34 32 30 27 30 34 38 39 42 44 46 45 46 46 45 45 45 48 52 54 55 53 52 55 56 58 60 62 64 65 65 67 68 68 68 67 67 68 69 70 71 72 73 74 76 76 76 76 76 76 76 77 77 76 76 76 76 75 75 75 75 75 75 75 75 75 75 75 75 75 75 75 75 75 75 75 74 74 74 74 74 74 74 74 74 74 73 74 73 72 72 72 72 72
55 48 43 34 31 29 30 30 36 39 41 43 44 45 45 44 43 44 47 48 50 52 54 52 51 52 56 58 59 63 64 64 63 63 66 67 69 69 67 69 68 68 69 70 72 74 74 75 76 76 76 76 76 76 76 76 76 76 76 75 75 75 75 75 75 75 75 75 75 75 75 75 75 75 75 75 75 75 75 75 75 74 75 75 74 74 74 74 73 73 74 73 74 74 73 73 73
45 37 38 32 29 30 27 30 35 39 41 43 43 46 46 43 44 45 47 50 52 52 50 53 55 57 56 57 59 61 63 63 63 63 65 67 67 67 68 67 68 68 68 69 71 73 75 76 76 77 76 77 76 76 76 76 76 76 76 76 75 75 75 75 75 75 75 75 75 75 76 76 76 76 75 75 75 75 75 75 75 75 75 74 74 74 73 73 74 74 73 73 74 74 74 75 75
50 34 27 27 28 27 28 31 35 39 40 40 43 46 48 46 42 46 48 49 49 47 48 53 55 53 52 57 61 62 62 62 63 64 65 66 67 67 67 66 68 69 70 71 71 74 75 75 74 76 76 76 76 76 76 76 76 76 76 76 76 75 75 75 75 75 75 75 76 76 76 76 76 76 75 75 75 75 75 75 74 75 74 74 74 74 73 73 74 73 73 73 73 74 74 75 75
51 39 32 30 30 26 26 30 34 33 36 41 44 47 48 46 45 46 48 50 52 51 52 54 55 57 59 59 60 59 60 62 63 64 65 66 67 67 67 66 68 69 71 72 73 74 74 74 74 74 76 77 76 76 76 76 76 76 76 76 75 75 75 75 75 75 75 76 76 76 76 76 76 75 75 75 75 75 75 74 74 74 74 73 73 72 72 74 74 73 73 72 72 73 74 74 74
53 40 30 31 25 25 27 28 27 29 35 42 46 47 49 49 48 48 50 53 53 54 57 59 56 50 52 56 58 58 61 62 63 64 65 66 68 68 68 68 68 70 71 71 73 74 74 74 73 75 76 77 76 76 76 77 77 76 76 76 76 76 75 75 75 75 75 75 75 75 75 75 75 75 75 75 75 75 74 74 74 74 73 75 74 75 74 74 73 74 73 73 73 73 73 74 73
52 42 29 28 22 22 26 26 28 28 35 41 47 49 50 51 51 50 52 54 55 58 59 54 57 56 53 55 59 60 62 62 63 63 65 67 69 69 69 68 68 70 71 71 74 74 73 74 74 75 75 76 76 75 76 76 76 77 76 76 76 76 75 75 75 75 75 75 75 75 75 76 75 75 75 75 74 74 75 74 74 74 74 75 74 74 74 74 74 74 73 73 72 73 74 74 73
48 42 27 23 23 22 24 25 27 27 36 42 47 48 48 52 55 54 54 54 54 57 58 59 54 54 55 57 60 61 62 63 65 64 65 67 67 67 68 67 68 69 70 71 73 75 74 75 75 75 75 76 76 76 75 76 76 76 76 76 76 76 75 75 75 75 75 75 75 75 75 76 75 75 76 74 75 75 75 74 74 74 74 75 75 74 74 74 74 74 73 73 73 73 73 74 73
43 34 21 23 21 21 24 25 28 30 35 43 45 46 49 51 54 55 55 55 57 59 60 61 62 61 61 61 62 62 62 63 64 63 64 65 64 63 66 66 67 67 69 70 72 73 74 75 75 75 74 76 76 76 76 76 76 76 77 77 77 76 76 76 76 76 75 75 75 75 76 75 74 76 76 72 75 73 74 74 74 74 74 75 75 75 74 74 74 74 74 74 73 73 73 74 75
37 24 23 23 22 25 26 30 31 31 35 44 43 45 46 50 52 54 52 54 57 60 61 61 62 62 63 63 62 62 62 62 63 61 62 64 63 62 62 66 67 66 67 68 70 72 73 73 75 74 74 75 76 75 76 76 77 77 77 77 77 75 75 76 76 75 75 75 76 75 75 75 75 76 76 76 75 73 74 74 74 74 73 76 75 75 74 75 75 75 75 74 74 73 73 74 74
28 27 22 21 25 32 36 34 38 40 42 43 43 45 47 49 49 51 49 51 53 55 59 60 61 61 61 62 62 62 63 64 65 63 62 64 64 62 63 64 65 67 67 67 68 71 72 71 73 74 76 76 76 74 74 75 76 78 75 76 76 76 76 76 76 77 76 76 75 75 74 75 76 76 74 74 75 75 74 75 75 75 75 75 75 75 75 74 75 75 75 75 75 74 73 72 71
21 21 19 23 30 31 40 42 42 40 42 42 44 46 47 48 48 47 47 47 50 55 59 59 60 60 61 62 62 62 63 63 63 63 62 64 65 64 64 65 64 67 67 67 69 71 72 71 72 73 76 75 75 75 75 74 76 75 74 74 75 75 75 75 75 76 77 77 76 76 74 75 75 75 75 75 74 74 73 74 74 74 72 74 76 76 76 76 75 73 75 75 74 74 73 72 72
22 26 28 30 35 37 44 44 44 43 42 43 43 44 47 49 50 49 47 46 50 54 58 60 61 61 61 62 62 63 63 63 63 62 63 64 65 66 65 65 66 66 67 67 68 70 71 71 72 72 75 76 76 75 75 75 76 75 74 74 75 75 75 75 75 75 75 76 75 73 73 74 75 75 75 75 75 75 74 73 73 73 73 73 76 74 73 75 73 72 73 72 72 72 71 72 70
20 31 34 36 36 40 44 43 44 41 40 40 43 45 46 50 51 52 54 55 57 60 61 62 61 62 62 62 62 62 63 64 62 62 63 63 65 64 63 64 65 65 67 67 68 70 71 72 73 73 72 76 76 75 75 74 74 74 75 75 75 74 74 74 73 72 74 76 76 75 73 72 73 73 74 75 75 74 73 73 71 72 72 71 71 71 73 74 73 72 72 72 71 71 71 72 72
19 32 38 39 40 42 44 44 44 40 40 42 44 45 46 49 51 55 57 59 60 62 62 63 62 62 62 62 62 62 63 64 63 63 62 61 62 63 62 62 64 65 67 67 68 69 71 70 72 73 73 76 76 76 76 75 74 74 73 75 75 74 74 74 73 71 73 74 76 75 74 74 72 72 73 74 74 74 73 73 73 70 70 71 71 71 70 70 72 72 73 72 71 72 69 70 68
28 35 42 43 43 44 44 44 42 41 41 43 45 46 49 50 52 55 57 59 61 62 62 62 62 62 62 63 62 63 64 64 63 64 63 64 62 63 63 63 65 65 66 67 67 68 70 71 72 73 74 76 76 75 74 74 73 75 73 73 74 74 75 73 74 74 72 73 74 76 76 73 72 72 72 73 73 73 73 73 72 70 71 69 71 70 71 71 71 72 73 73 72 72 70 69 69
32 38 42 43 43 44 45 44 41 41 42 45 45 48 52 53 55 55 57 59 61 62 62 62 62 62 62 62 63 66 66 64 64 64 64 65 63 63 63 64 64 65 66 67 67 68 69 71 71 72 74 75 76 74 75 73 72 72 74 75 75 75 74 75 75 73 73 71 72 75 74 74 73 71 72 73 72 72 71 73 73 71 69 69 69 70 70 70 70 72 72 73 72 71 70 68 67
40 40 42 43 44 45 45 41 41 43 43 44 45 46 48 50 47 52 57 60 61 61 62 63 62 62 61 61 63 65 64 64 64 65 65 65 65 64 64 64 64 65 66 66 66 68 69 70 70 72 73 75 74 74 74 74 73 72 73 74 75 76 75 75 74 74 71 71 72 75 76 77 74 72 72 73 74 73 72 72 71 71 69 70 69 69 70 70 70 71 73 72 72 72 70 68 68
43 44 45 46 45 45 46 45 44 43 43 44 44 45 45 46 46 51 57 58 60 61 61 62 62 63 63 63 64 67 67 67 67 66 65 66 65 64 65 66 66 65 65 67 67 69 68 68 68 70 71 73 74 72 73 73 73 72 73 73 73 75 76 75 73 73 72 71 73 75 76 76 75 74 74 75 74 73 72 71 71 70 71 70 70 70 70 70 70 72 74 75 75 73 72 70 70
43 42 41 45 45 44 42 41 43 46 45 45 44 44 43 44 48 55 57 58 57 56 61 61 62 64 64 65 65 67 66 67 67 67 66 66 66 66 65 66 66 67 66 67 68 69 67 68 69 70 71 73 74 72 72 72 72 72 72 72 71 69 72 73 72 72 72 73 74 75 76 77 77 76 75 76 75 74 74 73 71 71 70 71 71 72 72 72 70 71 73 75 74 74 72 71 71
38 36 40 42 41 40 40 43 46 45 47 48 48 36 40 46 52 55 57 57 56 56 58 59 62 63 65 65 65 67 67 68 67 67 67 67 68 67 67 67 68 68 68 69 70 69 68 68 68 68 71 71 73 72 73 72 73 72 72 72 72 72 68 68 70 72 72 73 74 76 76 76 76 76 76 75 75 75 73 74 74 73 71 72 71 73 72 73 70 69 70 71 72 73 72 71 70
31 34 35 35 35 38 44 42 46 41 50 51 46 35 39 49 52 55 57 56 54 54 55 56 58 61 64 64 65 65 67 68 67 68 68 68 68 68 70 71 71 72 71 71 71 71 71 71 71 70 71 72 72 73 73 74 73 71 71 71 71 72 71 70 68 70 71 72 74 74 76 77 77 77 76 75 74 74 73 72 73 74 74 72 71 72 73 72 72 71 69 69 69 71 71 72 71
32 30 28 31 31 37 41 43 44 39 46 48 44 34 38 49 52 55 56 56 53 52 53 54 57 58 60 63 63 63 65 67 69 68 67 68 69 70 71 73 73 74 74 75 74 73 72 72 73 72 73 73 73 74 74 74 74 74 73 72 73 73 71 71 69 71 71 71 73 74 75 77 77 77 77 76 75 74 73 73 74 74 73 75 74 73 74 73 73 73 73 71 70 67 69 71 71
29 25 27 29 29 36 40 43 44 41 42 45 42 35 43 50 53 54 55 55 53 51 51 53 55 56 59 60 62 63 64 65 68 67 68 69 70 71 72 75 74 75 75 75 75 75 75 73 74 73 72 73 74 74 74 75 74 74 75 74 73 74 72 72 70 71 72 72 72 73 76 77 77 77 77 76 75 74 74 73 73 74 75 74 74 76 74 75 74 71 73 72 72 71 67 65 69
27 26 25 28 27 33 33 40 42 44 45 37 38 34 39 47 53 54 53 54 54 50 50 51 54 56 59 60 60 61 63 64 65 67 68 70 71 72 72 73 75 74 75 75 76 76 76 75 74 74 74 73 73 73 74 74 74 74 73 73 74 73 74 73 73 73 73 73 74 74 76 77 77 75 76 74 75 73 73 74 74 74 74 74 73 74 76 75 75 73 72 72 72 72 71 66 65
21 23 24 26 26 30 29 35 40 41 43 39 39 39 44 48 52 53 52 52 53 53 50 50 53 54 58 58 60 60 61 62 64 67 68 71 71 72 72 72 72 73 73 73 75 76 76 76 75 75 74 73 72 74 75 75 75 75 74 75 75 76 76 75 75 75 74 74 72 74 75 76 76 72 72 73 73 73 72 74 75 76 75 74 73 73 73 75 75 73 72 71 72 71 72 70 68
19 18 22 25 25 27 27 32 38 41 41 38 38 39 45 50 52 53 53 51 53 54 53 52 53 54 57 59 59 60 61 61 63 66 67 68 70 70 70 71 72 72 73 74 75 75 76 76 76 75 75 74 74 75 75 73 74 74 74 75 74 74 75 74 75 75 75 75 75 75 76 76 76 76 73 72 73 73 73 74 74 75 75 74 73 73 73 73 73 74 73 71 71 70 71 71 70
16 17 19 21 22 24 28 31 41 41 39 37 38 39 46 47 50 53 54 53 54 55 55 56 54 54 54 56 57 59 61 60 65 68 68 69 69 71 72 71 72 72 74 75 75 75 76 76 76 75 75 76 75 75 74 74 74 74 75 75 72 72 72 72 73 73 73 72 74 75 75 74 75 74 74 74 72 72 73 74 73 74 74 72 72 70 70 73 74 75 73 73 72 69 70 71 71
15 15 15 17 21 20 28 36 42 41 38 39 47 44 45 50 50 52 55 53 50 51 55 57 55 55 56 58 58 60 62 63 68 69 68 69 68 69 70 71 72 73 75 75 75 76 76 76 75 75 74 75 75 74 74 75 76 74 73 73 72 70 71 72 70 71 71 70 73 74 74 73 73 73 72 73 74 73 73 72 74 72 73 71 73 74 72 73 74 73 73 72 73 71 69 70 71
13 14 15 15 18 28 34 39 42 43 40 39 46 44 47 52 52 53 54 53 51 49 52 55 57 57 58 58 59 62 63 67 67 67 68 67 67 69 70 70 71 71 73 75 75 76 76 75 74 74 73 74 74 76 76 75 75 75 74 73 71 70 71 71 70 70 71 70 71 72 74 74 73 73 74 74 73 74 73 73 73 73 73 73 74 74 74 75 74 73 72 71 72 72 72 72 72
13 14 16 14 16 24 27 39 40 43 37 37 49 42 50 55 58 57 55 52 55 57 55 56 59 62 60 58 59 64 65 67 67 67 65 65 68 70 70 70 71 71 73 73 73 73 73 73 73 73 73 74 75 75 75 75 75 74 73 74 73 72 71 72 73 72 70 69 68 68 69 70 71 71 71 72 72 73 72 71 72 72 73 73 73 74 75 74 74 73 73 73 72 68 69 69 72
15 13 13 12 17 21 18 34 39 43 41 45 48 45 50 54 55 56 57 57 58 58 60 60 60 60 63 63 63 64 63 67 67 67 66 67 69 69 71 71 70 71 71 71 72 72 72 73 74 74 73 73 73 74 74 73 73 73 73 74 72 72 71 70 69 66 66 65 64 64 64 68 70 70 70 71 71 71 71 72 72 73 73 74 74 73 73 73 73 72 71 72 71 70 68 68 70
12 15 12 12 11 19 16 40 41 38 39 42 43 38 40 49 49 49 53 56 58 59 59 60 63 62 64 64 65 66 66 67 68 68 67 68 69 70 71 72 71 69 70 71 71 71 72 72 73 73 72 72 72 73 73 72 71 69 70 68 68 67 66 65 64 64 61 61 59 62 67 69 70 70 70 71 70 71 71 71 71 72 72 72 73 73 73 72 72 71 71 70 72 70 71 69 70
12 14 14 12 14 15 24 38 32 27 28 39 42 33 28 40 48 49 52 53 55 57 59 57 61 63 62 62 61 63 64 65 68 67 67 66 69 70 71 71 71 69 70 71 72 73 73 73 72 72 70 70 71 72 72 72 70 69 68 66 64 63 62 63 66 66 66 66 66 67 68 69 69 68 68 69 70 70 71 70 70 70 71 72 72 72 73 73 72 71 71 72 72 71 72 67 67
11 24 19 19 21 24 35 34 26 24 30 41 41 36 33 31 40 49 51 54 54 56 59 59 57 62 60 60 59 64 64 64 66 67 68 67 69 69 70 71 71 69 71 72 71 71 71 71 72 71 70 70 72 73 72 71 68 67 66 65 65 64 63 63 65 67 67 68 67 67 67 67 69 68 68 69 69 69 70 70 70 70 70 71 71 71 72 72 72 72 73 72 71 72 68 67 67
23 30 25 23 26 29 32 28 25 30 36 39 41 41 40 31 40 48 51 53 55 55 57 58 59 60 62 61 59 62 64 65 65 65 66 67 68 69 70 71 71 71 71 69 69 69 70 70 71 71 69 70 70 70 69 68 67 66 66 65 65 66 65 65 64 65 66 67 67 66 66 67 67 68 68 68 68 69 69 70 70 72 71 70 70 70 70 71 71 71 71 71 71 70 70 69 68
29 37 37 36 34 31 29 27 26 34 33 29 33 36 32 27 36 46 49 49 52 53 55 56 58 60 61 60 61 61 65 66 65 64 66 67 68 68 70 71 71 68 68 68 68 68 68 69 70 69 69 68 69 69 68 68 67 67 68 68 66 65 67 66 65 65 66 66 66 67 67 67 66 66 68 68 68 69 70 71 70 70 70 69 70 70 70 70 71 71 71 71 71 70 70 70 69
35 35 32 33 31 32 35 33 34 35 30 28 27 30 28 21 27 31 48 50 49 48 52 55 57 59 60 61 61 61 64 65 66 65 65 67 67 68 70 70 69 67 67 67 66 66 67 68 69 69 68 67 69 69 69 69 69 68 67 65 66 67 67 67 67 67 66 66 66 67 66 66 67 66 66 67 67 68 70 70 69 70 70 70 70 70 70 69 68 69 70 72 72 71 69 69 69
32 28 29 32 35 36 35 33 36 28 24 28 27 30 31 25 25 27 40 44 43 41 43 52 54 57 60 62 60 61 63 65 66 65 65 67 68 68 68 67 67 67 67 66 65 65 67 68 68 68 67 68 69 68 69 68 67 68 67 66 65 66 66 65 66 65 66 66 66 65 65 65 65 66 67 66 66 65 67 69 70 70 70 70 69 69 69 69 68 68 69 70 71 71 71 70 69
24 26 30 23 26 29 27 29 26 23 20 33 27 30 30 33 32 29 31 40 47 47 42 46 52 56 60 62 62 61 63 64 65 66 66 67 66 66 65 66 67 67 67 66 65 64 66 68 68 66 67 68 69 68 68 67 66 66 65 65 66 67 66 66 66 65 66 65 65 65 65 64 65 65 65 65 65 65 67 68 70 69 69 70 70 70 70 69 69 69 69 69 69 70 71 71 69
16 21 25 21 22 20 21 23 22 23 27 26 26 33 28 27 30 35 33 33 43 47 49 47 51 56 60 62 62 60 62 63 64 65 66 67 66 64 64 66 66 67 67 67 66 66 67 67 67 66 68 69 68 67 65 65 65 65 66 66 65 65 65 66 65 65 65 66 66 66 65 64 64 65 65 65 64 65 66 67 69 69 70 70 70 70 70 69 70 69 68 69 68 68 69 70 70
14 14 14 20 25 19 21 19 19 19 17 29 34 29 26 24 26 45 48 51 51 48 49 52 54 55 60 61 62 60 62 63 64 65 65 65 66 64 62 64 66 66 66 66 67 67 68 66 66 67 68 68 67 66 65 65 65 66 66 65 65 66 64 64 64 65 66 66 66 66 66 65 64 65 65 66 67 66 66 68 69 68 68 69 69 69 68 67 68 68 68 68 68 68 70 70 70
13 13 15 18 20 22 15 26 20 18 21 27 34 24 25 25 50 50 50 48 50 50 53 57 58 57 58 61 61 59 61 61 63 65 65 66 65 63 61 64 64 65 67 66 68 68 66 66 66 66 67 67 66 65 65 65 65 66 65 64 64 64 65 65 65 66 66 66 67 66 66 66 66 65 66 66 65 66 66 66 67 68 68 68 68 68 68 67 67 67 66 67 67 66 66 67 69
18 19 18 19 22 16 24 27 22 20 19 19 34 30 27 28 28 33 43 47 50 51 50 50 55 57 60 61 61 60 61 61 63 64 65 66 64 63 62 63 62 63 65 65 68 68 67 66 66 67 67 66 65 66 65 65 65 65 65 65 64 64 64 63 62 63 63 64 66 66 64 65 66 66 65 65 65 66 66 66 66 66 68 68 67 67 67 67 68 67 66 66 67 66 66 66 66
17 16 16 24 21 23 28 17 29 21 17 23 26 24 22 25 21 45 48 41 38 46 52 48 52 58 59 60 61 62 61 62 65 67 67 66 63 62 60 60 61 62 64 66 69 68 67 67 66 66 66 66 66 66 66 66 66 65 65 65 65 65 64 63 63 63 64 64 64 65 65 64 64 64 64 65 66 65 65 66 66 66 66 68 68 67 67 67 67 66 66 66 66 67 65 65 66
17 14 22 16 19 19 27 27 22 20 20 21 24 23 20 23 28 30 36 30 35 43 53 52 50 54 58 60 62 63 63 63 64 64 66 66 63 61 60 59 59 63 66 67 67 66 66 67 66 64 65 65 66 66 66 67 66 65 65 65 65 65 64 64 64 65 65 65 64 64 64 64 64 64 65 66 66 65 65 65 66 67 65 65 66 66 66 66 66 66 65 64 65 66 65 65 65
21 22 19 16 21 27 30 27 27 27 21 20 20 22 17 29 25 28 27 33 34 40 54 52 50 53 58 60 61 63 63 62 63 64 66 65 62 59 57 58 58 63 65 64 62 62 61 64 66 65 65 67 67 67 67 66 67 66 66 66 65 65 65 64 65 64 64 63 63 63 64 63 64 63 63 64 65 65 65 65 63 62 63 63 65 65 65 65 66 66 65 64 64 65 65 64 63
17 18 19 19 19 25 24 26 22 21 23 20 21 16 23 30 30 27 32 33 38 41 51 54 53 53 57 60 61 63 63 63 63 64 65 65 61 57 56 58 59 63 64 60 58 58 57 59 63 63 65 66 66 66 66 66 66 67 67 66 65 65 65 64 64 65 64 64 64 64 63 64 65 65 65 64 64 65 66 66 65 65 65 66 66 66 66 66 66 65 65 65 65 65 65 64 64
16 17 18 16 21 22 20 23 21 23 20 22 20 20 27 36 43 36 31 38 39 46 49 52 54 54 58 60 61 63 63 63 64 63 63 63 61 58 57 58 60 61 59 55 55 56 55 57 57 59 59 61 61 65 67 67 67 66 65 64 64 63 63 63 63 63 63 63 63 62 63 64 64 64 64 64 65 65 66 66 66 66 66 66 66 66 65 66 66 66 65 64 64 65 64 64 64